Santa Maria, CA

2:01 AM PST on February 25, 2018 (GMT -0800)
Santa Maria Public Airport / Captain G. Allan Hancock Field

Weather History for KSMX - December, 2012

Change the Weather History Date:

Wednesday, December 19, 2012

  Actual Average Record
Temperature  
Mean Temperature 44 °F 51 °F  
Max Temperature 58 °F 63 °F 81 °F (1917)
Min Temperature 30 °F 39 °F 26 °F (1918)
Degree Days  
Heating Degree Days 21 14  
Month to date heating degree days 202 256  
Since 1 July heating degree days 644 902  
Cooling Degree Days 0 0  
Month to date cooling degree days 0 0  
Year to date cooling degree days 120 104  
Moisture  
Dew Point 28 °F    
Average Humidity 57    
Maximum Humidity 89    
Minimum Humidity 24    
Precipitation  
Precipitation 0.00 in 0.07 in 2.13 in (2010)
Month to date precipitation 0.85 1.16  
Year to date precipitation 9.05 12.99  
Since 1 July precipitation 1.85  
Sea Level Pressure  
Sea Level Pressure 30.25 in    
Wind  
Wind Speed 6 mph (NNW)    
Max Wind Speed 20 mph    
Max Gust Speed 24 mph    
Visibility 10 miles    
Events      
T = Trace of Precipitation, MM = Missing Value Source: NWS Daily Summary

Daily Weather History Graph

Daily Weather History Graph

Search for Another Location

Airport or City:

Trip Planner

Search our weather history database for the weather conditions in past years. The results will help you decide how hot, cold, wet, or windy it might be!

Date:

Astronomy

Dec. 19, 2012 Rise Set
Actual Time 7:04 AM PST 4:53 PM PST
Civil Twilight 6:36 AM PST 5:21 PM PST
Nautical Twilight 6:05 AM PST 5:53 PM PST
Astronomical Twilight 5:34 AM PST 6:24 PM PST
Moon 11:32 AM PST (12/19) No Moon Set
Length of Visible Light 10h 45m
Length of Day
9h 48m
Waxing Crescent, 46% of the Moon is Illuminated
Dec 19
Waxing Crescent
Dec 19
First Quarter
Dec 28
Full
Jan 4
Last Quarter
Jan 11
New

Hourly Weather History & Observations

Time (PST) Temp. Windchill Dew Point Humidity Pressure Visibility Wind Dir Wind Speed Gust Speed Precip Events Conditions
12:51 AM 37.9 °F - 30.9 °F 76% 30.18 in 10.0 mi Calm Calm - N/A   Clear
1:51 AM 39.0 °F 32.8 °F 30.9 °F 73% 30.18 in 10.0 mi NNE 9.2 mph - N/A   Clear
2:51 AM 36.0 °F - 30.0 °F 79% 30.19 in 10.0 mi Calm Calm - N/A   Clear
3:51 AM 34.0 °F - 30.0 °F 85% 30.22 in 10.0 mi Calm Calm - N/A   Clear
4:51 AM 36.0 °F - 30.0 °F 79% 30.22 in 10.0 mi Calm Calm - N/A   Clear
5:51 AM 37.0 °F 31.6 °F 30.0 °F 76% 30.24 in 10.0 mi North 6.9 mph - N/A   Clear
6:51 AM 32.0 °F 26.4 °F 28.0 °F 85% 30.25 in 10.0 mi West 5.8 mph - N/A   Clear
7:51 AM 36.0 °F 33.3 °F 30.0 °F 79% 30.27 in 10.0 mi West 3.5 mph - N/A   Clear
8:51 AM 44.1 °F 39.5 °F 30.9 °F 60% 30.28 in 10.0 mi NW 8.1 mph - N/A   Clear
9:51 AM 51.1 °F - 25.0 °F 36% 30.29 in 10.0 mi North 10.4 mph - N/A   Clear
10:51 AM 54.0 °F - 21.0 °F 28% 30.28 in 10.0 mi North 12.7 mph - N/A   Clear
11:51 AM 55.9 °F - 21.0 °F 26% 30.26 in 10.0 mi NNE 15.0 mph 23.0 mph N/A   Clear
12:51 PM 57.0 °F - 25.0 °F 29% 30.25 in 10.0 mi North 12.7 mph - N/A   Clear
1:51 PM 57.0 °F - 21.9 °F 26% 30.22 in 10.0 mi North 10.4 mph - N/A   Clear
2:51 PM 57.9 °F - 23.0 °F 26% 30.22 in 10.0 mi NNW 9.2 mph - N/A   Clear
3:51 PM 55.9 °F - 23.0 °F 28% 30.22 in 10.0 mi NW 9.2 mph - N/A   Clear
4:51 PM 48.0 °F - 32.0 °F 54% 30.22 in 10.0 mi WNW 6.9 mph - N/A   Clear
5:51 PM 46.0 °F 43.1 °F 28.9 °F 51% 30.24 in 10.0 mi South 5.8 mph - N/A   Clear
6:51 PM 45.0 °F 41.2 °F 30.9 °F 58% 30.26 in 10.0 mi South 6.9 mph - N/A   Clear
7:51 PM 45.0 °F 43.5 °F 32.0 °F 60% 30.28 in 10.0 mi SSE 3.5 mph - N/A   Clear
8:51 PM 43.0 °F 41.3 °F 33.1 °F 68% 30.28 in 10.0 mi East 3.5 mph - N/A   Clear
9:51 PM 42.1 °F - 32.0 °F 67% 30.29 in 9.0 mi Calm Calm - N/A   Clear
10:51 PM 37.9 °F 34.4 °F 32.0 °F 79% 30.29 in 10.0 mi SE 4.6 mph - N/A   Clear
11:51 PM 39.0 °F - 30.9 °F 73% 30.27 in 10.0 mi Calm Calm - N/A   Clear